EHI
0 0 0 0 0 0 0 0 0 0 0 0 0 0 0 0 0 0 0 0 0 0 0 0 0 0 0 0 0 0 0 0 0 0 0 0 0 0 0 0 0 0 0
0 0 0 0 0 0 0 0 0 0 0 0 0 0 0 0 0 0 0 0 0 0 0 0 0 0 0 0 0 0 0 0 0 0 0 0 0 0 0 0 0 0 0
0 0 0 0 0 0 0 0 0 0 0 0 0 0 0 0 0 0 0 0 0 0 0 0 0 0 0 0 0 0 0 0 0 0 0 0 0 0 0 0 0 0 0
0 0 0 0 0 0 0 0 0 0 0 0 0 0 0 0 0 0 0 0 0 0 0 0 0 0 0 0 0 0 0 0 0 0 0 0 0 0 0 0 0 0 0
0 0 0 0 0 0 0 0 0 0 0 0 0 0 0 0 0 0 0 0 0 0 0 0 0 0 0 0 0 0 0 0 0 0 0 0 0 0 0 0 0 0 0
0 0 0 0 0 0 0 0 0 0 0 0 0 0 0 0 0 0 0 0 0 0 0 0 0 0 0 0 0 0 0 0 0 0 0 0 0 0 0 0 0 0 0
0 0 0 0 0 0 0 0 0 0 0 0 0 0 0 0 0 0 0 0 0 0 0 0 0 0 0 0 0 0 0 0 0 0 0 0 0 0 0 0 0 0 0
0 0 0 0 0 0 0 0 0 0 0 0 0 0 0 0 0 0 0 0 0 0 0 0 0 0 0 0 0 0 0 0 0 0 0 0 0 0 0 0 0 0 0
0 0 0 0 0 0 0 0 0 0 0 0 0 0 0 0 0 0 0 0 0 0 0 0 0 0 0 0 0 0 0 0 0 0 0 0 0 0 0 0 0 0 0
0 0 0 0 0 0 0 0 0 0 0 0 0 0 0 0 0 0 0 0 0 0 0 0 0 0 0 0 0 0 0 0 0 0 0 0 0 0 0 0 0 0 0
0 0 0 0 0 0 0 0 0 0 0 0 0 0 0 0 0 0 0 0 0 0 0 0 0 0 0 0 0 0 0 0 0 0 0 0 0 0 0 0 0 0 0
0 0 0 0 0 0 0 0 0 0 0 0 0 0 0 0 0 0 0 0 0 0 0 0 0 0 0 0 0 0 0 0 0 0 0 0 0 0 0 0 0 0 0
0 0 0 0 0 0 0 0 0 0 0 0 0 0 0 0 0 0 0 0 0 0 0 0 0 0 0 0 0 0 0 0 0 0 0 0 0 0 0 0 0 0 0
0 0 0 0 0 0 0 0 0 0 0 0 0 0 0 0 0 0 0 0 0 0 0 0 0 0 0 0 0 0 0 0 0 0 0 0 0 0 0 0 0 0 0
0 0 0 0 0 0 0 0 0 0 0 0 0 0 0 0 0 0 0 0 0 0 0 0 0 0 0 0 0 0 0 0 0 0 0 0 0 0 0 0 0 0 0
0 0 0 0 0 0 0 0 0 0 0 0 0 0 0 0 0 0 0 0 0 0 0 0 0 0 0 0 0 0 0 0 0 0 0 0 0 0 0 0 0 0 0
0 0 0 0 0 0 0 0 0 0 0 0 0 0 0 0 0 0 0 0 0 0 0 0 0 0 0 0 0 0 0 0 0 0 0 0 0 0 0 0 0 0 0
0 0 0 0 0 0 0 0 0 0 0 0 0 0 0 0 0 0 0 0 0 0 0 0 0 0 0 0 0 0 0 0 0 0 0 0 0 0 0 0 0 0 0
0 0 0 0 0 0 0 0 0 0 0 0 0 0 0 0 0 0 0 0 0 0 0 0 0 0 0 0 0 0 0 0 0 0 0 0 0 0 0 0 0 0 0
0 0 0 0 0 0 0 0 0 0 0 0 0 0 0 0 0 0 0 0 0 0 0 0 0 0 0 0 0 0 0 0 0 0 0 0 0 0 0 0 0 0 0
0 0 0 0 0 0 0 0 0 0 0 0 0 0 0 0 0 0 0 0 0 0 0 0 0 0 0 0 0 0 0 0 0 0 0 0 0 0 0 0 0 0 0
0 0 0 0 0 0 0 0 0 0 0 0 0 0 0 0 0 0 0 0 0 0 0 0 0 0 0 0 0 0 0 0 0 0 0 0 0 0 0 0 0 0 0
0 0 0 0 0 0 0 0 0 0 0 0 0 0 0 0 0 0 0 0 0 0 0 0 0 0 0 0 0 0 0 0 0 0 0 0 0 0 0 0 0 0 0
0 0 0 0 0 0 0 0 0 0 0 0 0 0 0 0 0 0 0 0 0 0 0 0 0 0 0 0 0 0 0 0 0 0 0 0 0 0 0 0 0 0 0
0 0 0 0 0 0 0 0 0 0 0 0 0 0 0 0 0 0 0 0 0 0 0 0 0 0 0 0 0 0 0 0 0 0 0 0 0 0 0 0 0 0 0
0 0 0 0 0 0 0 0 0 0 0 0 0 0 0 0 0 0 0 0 0 0 0 0 0 0 0 0 0 0 0 0 0 0 0 0 0 0 0 0 0 0 0
Wind_Speed
1 1 1 2 2 2 2 2 2 2 2 2 3 3 3 3 3 4 4 4 5 4 4 5 5 4 4 3 3 4 5 5 9 7 4 4 5 6 6 5 6 7 7
1 1 1 1 1 1 1 1 1 1 1 1 2 2 2 2 2 3 4 4 5 5 4 4 4 3 4 3 3 4 5 5 7 10 6 5 6 6 5 6 6 6 6
1 0 0 1 1 1 1 1 0 1 1 1 1 1 1 1 1 1 2 3 3 3 3 4 4 3 4 3 4 4 4 4 5 7 7 5 5 4 5 6 6 6 6
1 0 0 0 0 0 0 0 0 1 1 1 1 1 1 1 1 0 1 1 2 2 2 2 3 3 3 4 3 4 4 4 5 5 6 5 5 4 4 5 7 5 6
1 1 0 1 1 1 1 1 1 1 1 1 1 1 1 1 1 1 0 1 1 2 2 2 1 2 3 3 3 3 3 4 4 4 5 5 5 4 4 4 7 7 7
2 1 1 1 1 1 1 1 2 2 1 2 1 1 1 1 2 2 1 1 1 1 1 1 1 1 3 4 4 5 4 5 5 5 5 6 7 6 5 5 6 7 7
2 2 1 1 1 1 1 1 1 1 1 1 1 1 1 1 2 2 2 1 1 1 1 1 1 2 2 3 4 5 4 5 6 6 7 7 7 6 6 7 6 7 9
2 2 1 1 1 1 1 1 1 1 1 1 1 1 2 3 4 3 2 0 0 1 1 1 1 2 3 4 4 4 4 4 5 4 6 7 7 6 6 7 8 9 8
2 2 1 2 2 2 2 1 1 1 1 1 2 2 2 2 4 4 4 1 0 1 1 2 2 2 5 6 4 5 5 5 5 7 8 9 11 11 8 5 5 5 8
2 2 1 1 2 2 1 1 1 1 1 2 2 2 2 2 3 4 4 1 1 1 1 1 2 3 5 6 4 4 6 6 5 6 7 8 7 8 9 5 5 5 6
1 1 1 1 1 1 1 1 2 2 2 2 2 1 1 1 2 4 4 1 1 1 1 1 2 6 7 7 6 4 6 7 5 5 5 5 4 4 4 4 4 4 6
2 2 1 1 1 1 1 1 2 2 2 2 2 1 1 1 2 3 4 3 3 1 1 2 3 6 7 8 6 6 8 7 3 4 4 4 5 5 5 5 6 6 6
3 2 1 1 1 1 1 2 2 2 2 1 1 1 1 1 2 3 3 4 4 2 2 4 6 7 6 5 6 8 5 3 3 3 4 5 5 5 6 5 5 6 6
3 2 2 2 1 1 1 1 1 1 2 2 1 1 0 0 0 1 1 2 3 3 2 3 5 6 5 5 4 5 3 3 3 4 5 5 5 5 5 5 6 6 6
2 2 2 2 2 2 1 1 1 0 1 2 2 2 1 1 1 2 1 1 1 1 1 1 2 2 3 3 3 3 3 3 3 4 4 5 5 5 5 5 4 5 5
3 2 2 2 1 2 2 2 3 2 2 1 1 0 0 1 3 3 4 4 4 3 1 1 1 2 2 3 3 4 3 3 4 4 4 5 5 6 6 5 5 5 6
2 2 2 2 2 2 1 2 1 2 2 2 2 1 1 2 3 3 4 3 3 3 1 1 1 2 3 3 3 4 4 4 4 4 4 5 5 5 6 6 6 6 6
1 1 1 2 2 1 1 1 1 1 0 1 2 2 2 2 3 3 3 2 2 2 0 1 2 2 3 3 3 4 4 4 4 4 4 4 5 5 6 6 5 6 7
2 1 1 1 1 1 1 1 1 1 1 1 1 2 2 3 3 3 2 0 1 1 1 2 2 2 2 3 3 3 4 4 5 5 5 5 5 5 5 6 6 7 7
2 2 2 1 1 1 1 1 1 1 1 1 1 1 1 1 1 1 1 1 1 2 2 2 2 2 2 3 3 3 4 4 4 4 5 5 5 5 6 6 6 6 6
2 2 2 1 1 1 1 1 1 1 1 2 2 2 3 1 2 2 2 2 2 2 2 2 2 3 3 3 3 3 4 4 4 4 5 5 5 5 5 5 6 6 6
2 2 1 1 1 1 1 1 1 1 1 2 2 3 4 2 2 2 2 2 2 2 2 2 3 3 3 3 3 4 4 5 5 4 5 5 5 5 5 5 5 5 6
2 2 1 1 1 1 0 1 1 1 1 2 2 2 2 2 2 3 3 3 3 3 2 2 3 3 3 3 4 4 5 6 5 5 6 6 5 5 5 5 6 6 6
2 2 1 1 1 1 1 1 2 2 2 2 2 3 3 3 3 4 4 3 3 3 3 3 4 5 6 5 4 4 5 6 6 5 6 6 6 6 5 5 6 6 6
1 1 1 1 1 2 2 2 2 2 3 3 3 3 3 3 4 4 4 4 4 4 5 4 4 5 7 8 7 7 8 10 9 6 5 5 6 6 6 6 6 6 6
1 1 1 1 2 2 2 2 3 3 3 3 3 3 4 4 4 4 4 4 4 4 5 5 5 7 8 7 9 10 10 11 10 9 6 5 6 5 5 6 6 6 6
Wind_Direction
207 219 214 225 218 209 208 215 213 205 195 193 194 197 203 208 208 210 218 217 224 231 231 236 243 246 250 251 251 254 255 258 271 280 269 274 275 273 276 270 268 266 270
248 217 205 215 210 201 206 216 206 200 195 189 182 185 195 204 210 217 224 225 227 230 234 238 250 254 253 255 255 255 256 256 267 280 285 285 280 282 282 281 277 274 271
300 245 190 189 191 200 208 213 197 176 140 125 138 164 183 188 206 235 239 242 242 241 242 242 249 252 255 263 264 264 268 271 265 273 282 284 283 289 292 288 282 276 278
259 213 147 169 124 103 72 67 80 123 131 125 120 139 154 156 160 263 273 257 253 259 259 257 260 258 265 272 268 272 280 279 276 275 281 288 288 293 296 295 298 293 288
193 165 189 57 58 49 43 41 55 78 90 101 101 89 82 104 60 47 286 245 237 252 262 264 267 283 300 295 294 292 295 288 286 284 285 293 293 304 299 297 295 302 293
186 189 169 108 85 68 50 52 65 69 71 88 109 118 100 72 55 56 19 275 252 245 275 316 318 319 322 313 306 300 292 285 287 286 287 288 294 302 305 301 298 305 298
180 172 156 140 134 128 112 96 96 86 82 94 97 93 87 63 51 47 24 332 308 288 285 314 329 357 342 328 323 319 304 293 285 283 284 287 297 306 306 300 295 290 284
176 166 151 153 166 159 153 155 141 108 108 109 89 82 71 47 39 36 26 25 30 5 3 0 346 353 349 343 328 316 304 303 302 288 284 292 300 307 300 293 292 292 285
186 189 182 177 182 178 184 178 146 117 108 97 89 82 76 51 43 39 33 2 30 26 24 16 357 342 350 352 337 317 312 314 320 312 305 302 302 303 304 300 298 301 296
192 190 182 170 173 185 191 156 115 119 119 103 83 71 73 62 45 39 30 25 3 9 20 16 355 346 342 344 327 311 306 313 319 317 312 308 306 305 307 292 287 289 295
135 123 116 122 147 149 145 119 107 107 105 98 89 72 68 55 40 39 30 21 353 342 349 348 338 343 339 336 328 310 308 315 312 309 309 310 314 313 313 307 296 281 282
109 115 114 96 104 124 145 125 118 125 124 114 101 77 51 30 28 27 23 16 5 341 328 328 326 336 335 335 335 333 334 334 319 313 310 311 314 313 312 310 304 294 280
111 112 108 91 84 110 150 150 138 138 142 139 121 100 29 26 15 23 17 6 2 358 338 330 327 332 336 337 343 343 344 335 318 311 308 307 306 304 307 308 306 300 293
127 128 131 131 116 93 102 132 140 146 153 154 150 162 225 323 360 22 20 7 5 1 354 339 334 337 343 342 341 342 336 317 307 303 305 306 307 306 307 309 309 313 309
138 141 134 125 131 121 99 95 114 108 168 175 183 179 192 242 288 327 337 329 328 325 339 333 336 340 349 345 340 332 328 326 319 314 311 312 313 313 311 313 309 311 303
152 147 137 128 121 119 116 86 67 74 62 72 116 162 250 290 313 317 318 326 340 346 1 320 331 332 327 326 325 323 319 317 317 314 311 311 312 312 312 316 314 309 306
165 158 146 138 133 130 134 139 124 56 52 48 35 4 338 327 326 322 322 330 349 6 24 319 310 312 310 310 309 310 310 312 313 310 309 311 312 312 311 311 311 309 306
140 139 145 144 143 146 150 153 164 171 238 338 355 352 343 335 334 334 334 2 1 9 355 291 288 291 294 300 305 306 307 311 312 308 307 307 307 307 307 306 305 306 306
148 144 134 126 124 130 139 148 161 165 210 263 312 336 348 336 335 343 2 57 234 272 282 275 272 278 285 293 297 300 302 304 306 305 303 302 303 303 301 301 303 304 305
148 142 137 134 131 130 137 155 186 203 224 244 265 284 319 355 319 306 317 286 259 258 263 267 271 275 279 284 289 292 296 297 302 302 301 300 299 296 296 299 300 301 301
147 146 138 134 148 159 169 192 213 220 234 248 260 274 288 283 274 270 272 273 265 263 264 268 274 278 278 280 283 287 287 288 290 293 295 295 295 293 293 293 295 295 296
151 150 144 149 157 163 187 211 228 242 251 263 279 292 300 303 279 275 272 270 266 262 259 262 268 269 269 271 275 279 281 282 284 286 288 290 291 290 290 292 293 295 295
142 138 134 135 145 161 202 233 235 242 255 266 273 281 287 279 275 273 273 272 271 270 266 261 266 271 269 266 261 260 266 271 275 277 281 284 284 284 287 289 291 293 295
139 146 157 171 180 201 221 235 244 250 255 264 271 274 273 272 272 273 275 276 275 272 267 262 260 264 269 272 268 264 264 270 272 270 269 273 277 281 282 284 284 284 288
148 162 178 195 206 218 230 240 249 255 258 260 264 268 270 271 273 274 275 274 274 274 274 269 264 266 269 271 271 270 273 277 276 270 267 265 268 270 274 277 278 282 284
168 180 196 206 217 226 233 241 250 257 261 264 265 266 268 270 271 273 275 274 274 274 274 271 267 269 272 273 273 276 276 277 275 268 260 260 262 265 270 275 277 278 280